Tracking 23582 objects as of 31-Jul-2021
HD Live streaming from Space Station
objects crossing your sky now

RWASAT-1

Track RWASAT-1 now!
10-day predictions
RWASAT-1 is classified as:


NORAD ID: 44790
Int'l Code: 1998-067QT
Perigee: 386.8 km
Apogee: 396.8 km
Inclination: 51.6 °
Period: 92.2 minutes
Semi major axis: 6762 km
RCS: Unknown
Launch date: November 20, 1998
Source: Republic of Rwanda (RWA)
Launch site: TYURATAM MISSILE AND SPACE COMPLEX (TTMTR)

Uplink (MHz):
Downlink (MHz):
Beacon (MHz):
Mode:
Call sign:
Status: Unknown

aabbcc
Your satellite tracking list
Your tracking list is empty




NASA's NSSDC Master Catalog

Two Line Element Set (TLE):
1 44790U 98067QV  21212.15616561  .00009743  00000-0  11951-3 0  9996
2 44790  51.6401  99.5150 0007408 101.0251  30.4717 15.61031715 96277
Source of the keplerian elements: AFSPC